^^

Weather Underground History

Daily Summary for February 7, 2018 Units:  Metric    English   Both
Daily Weekly Monthly Yearly
  High: Low: Average:
Temperature: 27 °C 15 °C 20.2 °C
Dew Point: 17 °C 11 °C 14.7 °C
Humidity: 90% 46% 72%
Wind Speed: 12km/h 0km/h 3.7km/h
Wind Gust: 23km/h - -
Wind- - WSW
Pressure: 1010.6 hPa 1003.8 hPa -
Precipitation: 0.0 mm    
 
 
Tabular Data for February 7, 2018
Time Temperature Dew Point Pressure Wind Wind Speed Wind Gust Humidity Rainfall Rate (Hourly) solar
00:04 19 °C 15 °C 1010.6 hPa NE 2 km/h 10 km/h 77% 0.0 mm 0 W/m2
00:09 19 °C 15 °C 1010.6 hPa ENE 1 km/h 10 km/h 77% 0.0 mm 0 W/m2
00:14 19 °C 15 °C 1010.5 hPa NE 2 km/h 8 km/h 78% 0.0 mm 0 W/m2
00:19 19 °C 15 °C 1010.5 hPa NE 1 km/h 8 km/h 78% 0.0 mm 0 W/m2
00:24 18 °C 15 °C 1010.4 hPa NE 1 km/h 6 km/h 78% 0.0 mm 0 W/m2
00:29 18 °C 15 °C 1010.5 hPa NNE 1 km/h 11 km/h 79% 0.0 mm 0 W/m2
00:34 18 °C 15 °C 1010.5 hPa Calm   6 km/h 79% 0.0 mm 0 W/m2
00:39 18 °C 14 °C 1010.5 hPa Calm   6 km/h 79% 0.0 mm 0 W/m2
00:44 18 °C 15 °C 1010.4 hPa ENE 1 km/h 5 km/h 79% 0.0 mm 0 W/m2
00:49 18 °C 15 °C 1010.3 hPa ENE 3 km/h 8 km/h 80% 0.0 mm 0 W/m2
00:54 18 °C 15 °C 1010.3 hPa NE 1 km/h 6 km/h 80% 0.0 mm 0 W/m2
00:59 18 °C 15 °C 1010.3 hPa NE 1 km/h 6 km/h 80% 0.0 mm 0 W/m2
01:04 18 °C 15 °C 1010.2 hPa NE 1 km/h 6 km/h 80% 0.0 mm 0 W/m2
01:09 18 °C 15 °C 1010.1 hPa NE 2 km/h 6 km/h 81% 0.0 mm 0 W/m2
01:14 18 °C 15 °C 1010.1 hPa NNE 2 km/h 10 km/h 81% 0.0 mm 0 W/m2
01:19 18 °C 15 °C 1010.1 hPa Calm   10 km/h 81% 0.0 mm 0 W/m2
01:24 18 °C 15 °C 1010.1 hPa NNE 1 km/h 8 km/h 81% 0.0 mm 0 W/m2
01:29 18 °C 15 °C 1010.1 hPa NNE 1 km/h 6 km/h 81% 0.0 mm 0 W/m2
01:34 18 °C 15 °C 1010.0 hPa Calm   6 km/h 82% 0.0 mm 0 W/m2
01:39 18 °C 15 °C 1009.9 hPa NNE 1 km/h 8 km/h 82% 0.0 mm 0 W/m2
01:44 18 °C 15 °C 1009.9 hPa NE 2 km/h 8 km/h 82% 0.0 mm 0 W/m2
01:49 18 °C 15 °C 1009.8 hPa NE 1 km/h 8 km/h 82% 0.0 mm 0 W/m2
01:54 18 °C 15 °C 1009.7 hPa NE 2 km/h 6 km/h 82% 0.0 mm 0 W/m2
01:59 18 °C 15 °C 1009.6 hPa NE 1 km/h 6 km/h 82% 0.0 mm 0 W/m2
02:04 18 °C 15 °C 1009.5 hPa NNE 1 km/h 10 km/h 82% 0.0 mm 0 W/m2
02:09 18 °C 15 °C 1009.4 hPa NNE 1 km/h 6 km/h 83% 0.0 mm 0 W/m2
02:14 18 °C 15 °C 1009.3 hPa NE 3 km/h 10 km/h 83% 0.0 mm 0 W/m2
02:19 18 °C 15 °C 1009.3 hPa NE 1 km/h 8 km/h 83% 0.0 mm 0 W/m2
02:24 18 °C 15 °C 1009.3 hPa NE 1 km/h 5 km/h 83% 0.0 mm 0 W/m2
02:29 18 °C 15 °C 1009.2 hPa Calm     83% 0.0 mm 0 W/m2
02:34 18 °C 15 °C 1009.2 hPa NE 1 km/h 5 km/h 83% 0.0 mm 0 W/m2
02:39 18 °C 15 °C 1009.2 hPa Calm   5 km/h 83% 0.0 mm 0 W/m2
02:44 18 °C 15 °C 1009.1 hPa Calm     83% 0.0 mm 0 W/m2
02:49 18 °C 15 °C 1009.0 hPa Calm     83% 0.0 mm 0 W/m2
02:54 18 °C 15 °C 1009.0 hPa Calm   5 km/h 83% 0.0 mm 0 W/m2
02:59 18 °C 15 °C 1008.9 hPa NE 1 km/h 6 km/h 83% 0.0 mm 0 W/m2
03:04 18 °C 15 °C 1008.8 hPa NE 1 km/h 8 km/h 84% 0.0 mm 0 W/m2
03:09 18 °C 15 °C 1008.9 hPa Calm   6 km/h 84% 0.0 mm 0 W/m2
03:14 18 °C 15 °C 1008.8 hPa Calm   3 km/h 84% 0.0 mm 0 W/m2
03:19 18 °C 15 °C 1008.8 hPa Calm     84% 0.0 mm 0 W/m2
03:24 18 °C 15 °C 1008.8 hPa Calm   3 km/h 84% 0.0 mm 0 W/m2
03:29 18 °C 15 °C 1008.7 hPa Calm     84% 0.0 mm 0 W/m2
03:34 18 °C 15 °C 1008.8 hPa Calm     85% 0.0 mm 0 W/m2
03:39 17 °C 15 °C 1008.7 hPa Calm     85% 0.0 mm 0 W/m2
03:44 17 °C 15 °C 1008.7 hPa Calm     85% 0.0 mm 0 W/m2
03:49 17 °C 15 °C 1008.7 hPa Calm     85% 0.0 mm 0 W/m2
03:54 17 °C 14 °C 1008.6 hPa Calm     85% 0.0 mm 0 W/m2
03:59 17 °C 14 °C 1008.5 hPa Calm     85% 0.0 mm 0 W/m2
04:04 17 °C 15 °C 1008.5 hPa Calm     86% 0.0 mm 0 W/m2
04:09 17 °C 14 °C 1008.3 hPa Calm     86% 0.0 mm 0 W/m2
04:14 17 °C 14 °C 1008.3 hPa Calm   5 km/h 86% 0.0 mm 0 W/m2
04:19 17 °C 14 °C 1008.3 hPa Calm   3 km/h 86% 0.0 mm 0 W/m2
04:24 17 °C 14 °C 1008.4 hPa Calm     86% 0.0 mm 0 W/m2
04:29 17 °C 14 °C 1008.3 hPa Calm     86% 0.0 mm 0 W/m2
04:34 17 °C 14 °C 1008.3 hPa Calm     86% 0.0 mm 0 W/m2
04:39 17 °C 14 °C 1008.2 hPa Calm     86% 0.0 mm 0 W/m2
04:44 17 °C 14 °C 1008.2 hPa Calm     87% 0.0 mm 0 W/m2
04:49 17 °C 14 °C 1008.1 hPa Calm   5 km/h 87% 0.0 mm 0 W/m2
04:54 17 °C 14 °C 1008.1 hPa Calm     87% 0.0 mm 0 W/m2
04:59 17 °C 14 °C 1008.1 hPa Calm     87% 0.0 mm 0 W/m2
05:04 17 °C 14 °C 1008.1 hPa Calm     87% 0.0 mm 0 W/m2
05:09 17 °C 14 °C 1008.0 hPa Calm     87% 0.0 mm 0 W/m2
05:14 17 °C 14 °C 1008.1 hPa Calm     87% 0.0 mm 0 W/m2
05:19 16 °C 14 °C 1008.1 hPa Calm     87% 0.0 mm 0 W/m2
05:24 16 °C 14 °C 1008.2 hPa Calm     88% 0.0 mm 0 W/m2
05:29 16 °C 14 °C 1008.2 hPa Calm     88% 0.0 mm 0 W/m2
05:34 16 °C 14 °C 1008.1 hPa Calm     88% 0.0 mm 0 W/m2
05:39 16 °C 14 °C 1008.0 hPa Calm     88% 0.0 mm 0 W/m2
05:44 16 °C 14 °C 1008.0 hPa Calm     88% 0.0 mm 0 W/m2
05:49 16 °C 14 °C 1007.9 hPa Calm     88% 0.0 mm 0 W/m2
05:54 16 °C 14 °C 1007.9 hPa Calm     88% 0.0 mm 5 W/m2
05:59 16 °C 14 °C 1007.8 hPa Calm     88% 0.0 mm 7 W/m2
06:04 16 °C 14 °C 1007.8 hPa Calm     88% 0.0 mm 9 W/m2
06:09 16 °C 14 °C 1007.8 hPa Calm     89% 0.0 mm 12 W/m2
06:14 16 °C 14 °C 1007.8 hPa Calm     89% 0.0 mm 16 W/m2
06:19 16 °C 14 °C 1007.8 hPa Calm     89% 0.0 mm 21 W/m2
06:24 16 °C 14 °C 1007.8 hPa Calm     89% 0.0 mm 25 W/m2
06:29 16 °C 14 °C 1007.9 hPa Calm     89% 0.0 mm 28 W/m2
06:34 16 °C 14 °C 1007.8 hPa Calm     89% 0.0 mm 35 W/m2
06:39 16 °C 14 °C 1007.9 hPa Calm     90% 0.0 mm 44 W/m2
06:44 16 °C 14 °C 1007.9 hPa Calm     90% 0.0 mm 47 W/m2
06:49 16 °C 14 °C 1007.9 hPa Calm     90% 0.0 mm 62 W/m2
06:54 16 °C 14 °C 1007.9 hPa Calm     90% 0.0 mm 77 W/m2
06:59 16 °C 14 °C 1007.8 hPa Calm     90% 0.0 mm 81 W/m2
07:04 16 °C 14 °C 1007.9 hPa Calm     90% 0.0 mm 90 W/m2
07:09 17 °C 15 °C 1007.8 hPa Calm     89% 0.0 mm 98 W/m2
07:14 17 °C 14 °C 1007.8 hPa Calm     89% 0.0 mm 100 W/m2
07:19 17 °C 15 °C 1007.7 hPa Calm     89% 0.0 mm 98 W/m2
07:24 17 °C 15 °C 1007.6 hPa Calm     89% 0.0 mm 107 W/m2
07:29 17 °C 15 °C 1007.6 hPa Calm     88% 0.0 mm 51 W/m2
07:34 17 °C 15 °C 1007.6 hPa Calm     87% 0.0 mm 107 W/m2
07:39 17 °C 15 °C 1007.5 hPa Calm     87% 0.0 mm 153 W/m2
07:44 17 °C 15 °C 1007.6 hPa Calm     87% 0.0 mm 169 W/m2
07:49 17 °C 15 °C 1007.6 hPa Calm     87% 0.0 mm 211 W/m2
07:54 17 °C 15 °C 1007.6 hPa Calm     87% 0.0 mm 188 W/m2
07:59 17 °C 15 °C 1007.5 hPa Calm     86% 0.0 mm 181 W/m2
08:04 18 °C 16 °C 1007.5 hPa Calm     87% 0.0 mm 202 W/m2
08:09 18 °C 16 °C 1007.5 hPa Calm   2 km/h 87% 0.0 mm 202 W/m2
08:14 18 °C 16 °C 1007.5 hPa Calm   3 km/h 86% 0.0 mm 163 W/m2
08:19 18 °C 16 °C 1007.5 hPa Calm   3 km/h 85% 0.0 mm 144 W/m2
08:24 18 °C 16 °C 1007.5 hPa Calm     85% 0.0 mm 141 W/m2
08:29 18 °C 16 °C 1007.4 hPa Calm     84% 0.0 mm 142 W/m2
08:34 18 °C 16 °C 1007.4 hPa Calm     84% 0.0 mm 139 W/m2
08:39 19 °C 16 °C 1007.3 hPa Calm   5 km/h 83% 0.0 mm 162 W/m2
08:44 19 °C 16 °C 1007.4 hPa Calm   6 km/h 83% 0.0 mm 162 W/m2
08:49 19 °C 16 °C 1007.4 hPa North 2 km/h 8 km/h 82% 0.0 mm 134 W/m2
08:54 19 °C 16 °C 1007.5 hPa NNW 5 km/h 8 km/h 81% 0.0 mm 134 W/m2
08:59 19 °C 16 °C 1007.5 hPa NNW 2 km/h 8 km/h 81% 0.0 mm 128 W/m2
09:04 19 °C 16 °C 1007.5 hPa NNW 3 km/h 8 km/h 81% 0.0 mm 148 W/m2
09:09 19 °C 16 °C 1007.4 hPa NNW 2 km/h 8 km/h 81% 0.0 mm 163 W/m2
09:14 19 °C 16 °C 1007.4 hPa NNW 2 km/h 6 km/h 81% 0.0 mm 167 W/m2
09:19 19 °C 16 °C 1007.2 hPa NNW 2 km/h 6 km/h 80% 0.0 mm 167 W/m2
09:24 19 °C 16 °C 1007.1 hPa Calm   5 km/h 80% 0.0 mm 278 W/m2
09:29 20 °C 16 °C 1007.1 hPa NW 1 km/h 6 km/h 80% 0.0 mm 278 W/m2
09:34 20 °C 16 °C 1007.1 hPa SW 6 km/h 10 km/h 79% 0.0 mm 262 W/m2
09:39 20 °C 16 °C 1007.1 hPa SSW 5 km/h 10 km/h 77% 0.0 mm 229 W/m2
09:44 20 °C 16 °C 1007.0 hPa WSW 1 km/h 6 km/h 77% 0.0 mm 185 W/m2
09:49 20 °C 16 °C 1007.0 hPa WSW 5 km/h 10 km/h 77% 0.0 mm 200 W/m2
09:54 21 °C 16 °C 1007.0 hPa WSW 2 km/h 10 km/h 77% 0.0 mm 253 W/m2
09:59 21 °C 16 °C 1006.8 hPa WSW 1 km/h 5 km/h 76% 0.0 mm 211 W/m2
10:04 21 °C 16 °C 1006.9 hPa WSW 2 km/h 10 km/h 76% 0.0 mm 385 W/m2
10:09 21 °C 17 °C 1006.9 hPa WSW 3 km/h 11 km/h 76% 0.0 mm 403 W/m2
10:14 21 °C 17 °C 1006.9 hPa WSW 4 km/h 10 km/h 75% 0.0 mm 533 W/m2
10:19 21 °C 17 °C 1006.9 hPa WSW 6 km/h 13 km/h 74% 0.0 mm 610 W/m2
10:24 21 °C 17 °C 1006.7 hPa WSW 1 km/h 8 km/h 74% 0.0 mm 624 W/m2
10:29 22 °C 17 °C 1006.6 hPa WSW 6 km/h 13 km/h 73% 0.0 mm 603 W/m2
10:34 22 °C 16 °C 1006.5 hPa SW 5 km/h 13 km/h 71% 0.0 mm 587 W/m2
10:39 22 °C 16 °C 1006.5 hPa WSW 4 km/h 11 km/h 72% 0.0 mm 645 W/m2
10:44 22 °C 17 °C 1006.4 hPa WSW 3 km/h 10 km/h 72% 0.0 mm 640 W/m2
10:49 22 °C 17 °C 1006.4 hPa SW 4 km/h 11 km/h 71% 0.0 mm 714 W/m2
10:54 22 °C 17 °C 1006.4 hPa SSW 4 km/h 11 km/h 70% 0.0 mm 652 W/m2
10:59 22 °C 17 °C 1006.5 hPa WSW 6 km/h 14 km/h 69% 0.0 mm 640 W/m2
11:04 22 °C 17 °C 1006.5 hPa West 5 km/h 14 km/h 69% 0.0 mm 577 W/m2
11:09 22 °C 17 °C 1006.4 hPa WSW 7 km/h 14 km/h 69% 0.0 mm 712 W/m2
11:14 23 °C 17 °C 1006.4 hPa WSW 8 km/h 14 km/h 68% 0.0 mm 712 W/m2
11:19 23 °C 17 °C 1006.3 hPa WSW 6 km/h 13 km/h 68% 0.0 mm 663 W/m2
11:24 23 °C 17 °C 1006.3 hPa West 9 km/h 14 km/h 67% 0.0 mm 795 W/m2
11:29 23 °C 17 °C 1006.3 hPa WSW 7 km/h 13 km/h 67% 0.0 mm 768 W/m2
11:34 23 °C 17 °C 1006.3 hPa WSW 7 km/h 13 km/h 67% 0.0 mm 763 W/m2
11:39 23 °C 17 °C 1006.3 hPa West 6 km/h 13 km/h 66% 0.0 mm 763 W/m2
11:44 23 °C 17 °C 1006.2 hPa SW 7 km/h 13 km/h 66% 0.0 mm 803 W/m2
11:49 23 °C 17 °C 1006.2 hPa WSW 10 km/h 18 km/h 65% 0.0 mm 773 W/m2
11:54 23 °C 17 °C 1006.2 hPa SW 5 km/h 18 km/h 64% 0.0 mm 740 W/m2
11:59 23 °C 16 °C 1006.1 hPa SW 6 km/h 13 km/h 63% 0.0 mm 810 W/m2
12:04 23 °C 16 °C 1006.1 hPa WSW 7 km/h 18 km/h 63% 0.0 mm 800 W/m2
12:09 24 °C 16 °C 1006.0 hPa SW 7 km/h 18 km/h 62% 0.0 mm 679 W/m2
12:14 23 °C 16 °C 1006.0 hPa SW 8 km/h 16 km/h 63% 0.0 mm 761 W/m2
12:19 24 °C 16 °C 1006.0 hPa SW 5 km/h 16 km/h 62% 0.0 mm 803 W/m2
12:24 24 °C 16 °C 1005.9 hPa SW 8 km/h 16 km/h 62% 0.0 mm 740 W/m2
12:29 24 °C 16 °C 1005.9 hPa WSW 7 km/h 16 km/h 60% 0.0 mm 701 W/m2
12:34 24 °C 16 °C 1005.8 hPa West 4 km/h 14 km/h 60% 0.0 mm 833 W/m2
12:39 24 °C 17 °C 1005.7 hPa WSW 6 km/h 14 km/h 61% 0.0 mm 928 W/m2
12:44 24 °C 16 °C 1005.8 hPa WSW 8 km/h 16 km/h 59% 0.0 mm 911 W/m2
12:49 25 °C 16 °C 1005.7 hPa WSW 9 km/h 19 km/h 58% 0.0 mm 907 W/m2
12:54 25 °C 16 °C 1005.6 hPa SW 4 km/h 19 km/h 57% 0.0 mm 918 W/m2
12:59 25 °C 16 °C 1005.6 hPa SW 7 km/h 14 km/h 57% 0.0 mm 918 W/m2
13:04 25 °C 16 °C 1005.7 hPa WSW 6 km/h 16 km/h 56% 0.0 mm 882 W/m2
13:09 25 °C 16 °C 1005.6 hPa WSW 6 km/h 16 km/h 56% 0.0 mm 833 W/m2
13:14 25 °C 16 °C 1005.6 hPa SSW 8 km/h 19 km/h 56% 0.0 mm 803 W/m2
13:19 25 °C 16 °C 1005.5 hPa SW 8 km/h 21 km/h 55% 0.0 mm 795 W/m2
13:24 25 °C 16 °C 1005.5 hPa SW 10 km/h 23 km/h 54% 0.0 mm 802 W/m2
13:29 26 °C 15 °C 1005.5 hPa West 7 km/h 14 km/h 53% 0.0 mm 817 W/m2
13:34 26 °C 16 °C 1005.5 hPa WSW 8 km/h 16 km/h 53% 0.0 mm 814 W/m2
13:39 26 °C 16 °C 1005.5 hPa SW 7 km/h 14 km/h 52% 0.0 mm 800 W/m2
13:44 26 °C 16 °C 1005.5 hPa SW 6 km/h 18 km/h 52% 0.0 mm 803 W/m2
13:49 26 °C 16 °C 1005.4 hPa WSW 10 km/h 19 km/h 52% 0.0 mm 788 W/m2
13:54 26 °C 15 °C 1005.4 hPa WNW 9 km/h 19 km/h 51% 0.0 mm 772 W/m2
13:59 26 °C 16 °C 1005.3 hPa West 6 km/h 19 km/h 51% 0.0 mm 770 W/m2
14:04 26 °C 15 °C 1005.4 hPa WSW 8 km/h 18 km/h 51% 0.0 mm 763 W/m2
14:09 26 °C 15 °C 1005.3 hPa WSW 8 km/h 13 km/h 51% 0.0 mm 759 W/m2
14:14 26 °C 15 °C 1005.2 hPa WSW 8 km/h 19 km/h 51% 0.0 mm 754 W/m2
14:19 26 °C 15 °C 1005.1 hPa South 9 km/h 18 km/h 51% 0.0 mm 751 W/m2
14:24 26 °C 16 °C 1005.1 hPa WSW 6 km/h 13 km/h 51% 0.0 mm 759 W/m2
14:29 26 °C 15 °C 1005.2 hPa SW 8 km/h 18 km/h 50% 0.0 mm 768 W/m2
14:34 27 °C 15 °C 1005.2 hPa SW 8 km/h 18 km/h 49% 0.0 mm 758 W/m2
14:39 26 °C 15 °C 1005.2 hPa West 7 km/h 14 km/h 50% 0.0 mm 749 W/m2
14:44 26 °C 15 °C 1005.2 hPa WSW 8 km/h 14 km/h 50% 0.0 mm 751 W/m2
14:49 27 °C 15 °C 1005.1 hPa West 11 km/h 18 km/h 48% 0.0 mm 733 W/m2
14:54 27 °C 14 °C 1005.1 hPa WSW 8 km/h 16 km/h 47% 0.0 mm 722 W/m2
14:59 27 °C 14 °C 1005.2 hPa WSW 7 km/h 16 km/h 48% 0.0 mm 705 W/m2
15:04 27 °C 14 °C 1005.1 hPa West 8 km/h 16 km/h 47% 0.0 mm 694 W/m2
15:09 27 °C 14 °C 1005.1 hPa West 7 km/h 16 km/h 47% 0.0 mm 686 W/m2
15:14 27 °C 14 °C 1005.0 hPa West 9 km/h 18 km/h 47% 0.0 mm 682 W/m2
15:19 27 °C 14 °C 1005.0 hPa West 7 km/h 14 km/h 47% 0.0 mm 677 W/m2
15:24 27 °C 14 °C 1005.0 hPa West 8 km/h 16 km/h 47% 0.0 mm 673 W/m2
15:29 27 °C 14 °C 1005.0 hPa West 8 km/h 18 km/h 47% 0.0 mm 663 W/m2
15:34 27 °C 14 °C 1004.8 hPa West 5 km/h 14 km/h 46% 0.0 mm 659 W/m2
15:39 27 °C 14 °C 1005.0 hPa WSW 8 km/h 16 km/h 47% 0.0 mm 657 W/m2
15:44 27 °C 15 °C 1005.0 hPa SW 6 km/h 11 km/h 47% 0.0 mm 663 W/m2
15:49 27 °C 14 °C 1004.9 hPa SW 8 km/h 18 km/h 46% 0.0 mm 652 W/m2
15:54 27 °C 14 °C 1004.9 hPa WSW 6 km/h 18 km/h 47% 0.0 mm 640 W/m2
15:59 27 °C 14 °C 1004.9 hPa West 8 km/h 14 km/h 46% 0.0 mm 626 W/m2
16:04 27 °C 15 °C 1004.8 hPa West 12 km/h 21 km/h 47% 0.0 mm 605 W/m2
16:09 27 °C 15 °C 1004.7 hPa WSW 9 km/h 21 km/h 47% 0.0 mm 594 W/m2
16:14 27 °C 14 °C 1004.7 hPa WNW 8 km/h 14 km/h 47% 0.0 mm 601 W/m2
16:19 27 °C 14 °C 1004.5 hPa West 5 km/h 13 km/h 47% 0.0 mm 601 W/m2
16:24 27 °C 14 °C 1004.4 hPa West 7 km/h 13 km/h 47% 0.0 mm 316 W/m2
16:29 26 °C 14 °C 1004.5 hPa WSW 6 km/h 14 km/h 48% 0.0 mm 278 W/m2
16:34 26 °C 14 °C 1004.5 hPa WSW 2 km/h 6 km/h 49% 0.0 mm 230 W/m2
16:39 26 °C 14 °C 1004.5 hPa West 7 km/h 13 km/h 49% 0.0 mm 229 W/m2
16:44 26 °C 14 °C 1004.5 hPa WSW 9 km/h 16 km/h 49% 0.0 mm 501 W/m2
16:49 26 °C 14 °C 1004.4 hPa West 4 km/h 16 km/h 50% 0.0 mm 612 W/m2
16:54 26 °C 15 °C 1004.2 hPa SW 6 km/h 14 km/h 50% 0.0 mm 599 W/m2
16:59 27 °C 15 °C 1004.1 hPa WSW 6 km/h 14 km/h 49% 0.0 mm 526 W/m2
17:04 27 °C 15 °C 1004.0 hPa WSW 5 km/h 14 km/h 48% 0.0 mm 485 W/m2
17:09 27 °C 16 °C 1004.0 hPa West 5 km/h 13 km/h 49% 0.0 mm 454 W/m2
17:14 27 °C 16 °C 1003.8 hPa WNW 4 km/h 13 km/h 51% 0.0 mm 441 W/m2
17:19 27 °C 16 °C 1003.9 hPa NW 5 km/h 14 km/h 51% 0.0 mm 397 W/m2
17:24 27 °C 15 °C 1003.9 hPa WNW 5 km/h 14 km/h 50% 0.0 mm 397 W/m2
17:29 26 °C 15 °C 1003.9 hPa West 5 km/h 10 km/h 50% 0.0 mm 301 W/m2
17:34 26 °C 15 °C 1003.9 hPa West 2 km/h 6 km/h 50% 0.0 mm 102 W/m2
17:39 26 °C 16 °C 1004.0 hPa WNW 6 km/h 11 km/h 54% 0.0 mm 97 W/m2
17:44 25 °C 16 °C 1004.0 hPa NW 3 km/h 10 km/h 58% 0.0 mm 378 W/m2
17:49 24 °C 17 °C 1004.0 hPa WNW 12 km/h 19 km/h 60% 0.0 mm 378 W/m2
17:54 24 °C 17 °C 1004.1 hPa WNW 9 km/h 16 km/h 61% 0.0 mm 359 W/m2
17:59 24 °C 17 °C 1004.2 hPa NW 9 km/h 16 km/h 62% 0.0 mm 327 W/m2
18:04 24 °C 16 °C 1004.2 hPa WNW 9 km/h 16 km/h 62% 0.0 mm 371 W/m2
18:09 24 °C 16 °C 1004.3 hPa WNW 9 km/h 16 km/h 62% 0.0 mm 359 W/m2
18:14 24 °C 16 °C 1004.3 hPa WNW 8 km/h 13 km/h 62% 0.0 mm 309 W/m2
18:19 24 °C 16 °C 1004.3 hPa NW 9 km/h 16 km/h 63% 0.0 mm 269 W/m2
18:24 23 °C 16 °C 1004.2 hPa NW 10 km/h 16 km/h 63% 0.0 mm 269 W/m2
18:29 23 °C 16 °C 1004.2 hPa WNW 11 km/h 19 km/h 63% 0.0 mm 220 W/m2
18:34 23 °C 16 °C 1004.2 hPa WNW 11 km/h 19 km/h 64% 0.0 mm 220 W/m2
18:39 22 °C 16 °C 1004.1 hPa WNW 10 km/h 19 km/h 65% 0.0 mm 195 W/m2
18:44 22 °C 16 °C 1004.2 hPa NW 8 km/h 16 km/h 66% 0.0 mm 190 W/m2
18:49 22 °C 15 °C 1004.2 hPa NW 10 km/h 21 km/h 67% 0.0 mm 186 W/m2
18:54 21 °C 15 °C 1004.3 hPa WNW 8 km/h 13 km/h 67% 0.0 mm 162 W/m2
18:59 21 °C 15 °C 1004.4 hPa WNW 11 km/h 16 km/h 68% 0.0 mm 120 W/m2
19:04 21 °C 15 °C 1004.4 hPa WNW 10 km/h 19 km/h 69% 0.0 mm 123 W/m2
19:09 20 °C 14 °C 1004.4 hPa WNW 9 km/h 14 km/h 70% 0.0 mm 111 W/m2
19:14 20 °C 14 °C 1004.4 hPa WNW 8 km/h 14 km/h 71% 0.0 mm 113 W/m2
19:19 20 °C 14 °C 1004.5 hPa WNW 9 km/h 16 km/h 71% 0.0 mm 113 W/m2
19:24 19 °C 14 °C 1004.4 hPa WNW 8 km/h 16 km/h 72% 0.0 mm 97 W/m2
19:29 19 °C 14 °C 1004.4 hPa WNW 7 km/h 14 km/h 73% 0.0 mm 65 W/m2
19:34 19 °C 14 °C 1004.3 hPa NW 7 km/h 16 km/h 73% 0.0 mm 81 W/m2
19:39 19 °C 14 °C 1004.4 hPa NW 7 km/h 16 km/h 74% 0.0 mm 72 W/m2
19:44 19 °C 14 °C 1004.4 hPa NW 6 km/h 13 km/h 74% 0.0 mm 62 W/m2
19:49 19 °C 14 °C 1004.4 hPa NW 6 km/h 10 km/h 75% 0.0 mm 47 W/m2
19:54 19 °C 14 °C 1004.4 hPa NW 7 km/h 13 km/h 75% 0.0 mm 40 W/m2
19:59 18 °C 14 °C 1004.6 hPa NW 5 km/h 11 km/h 75% 0.0 mm 33 W/m2
20:04 18 °C 14 °C 1004.7 hPa NW 4 km/h 11 km/h 76% 0.0 mm 32 W/m2
20:09 18 °C 14 °C 1004.7 hPa WNW 6 km/h 10 km/h 76% 0.0 mm 26 W/m2
20:14 18 °C 13 °C 1004.7 hPa WNW 2 km/h 10 km/h 76% 0.0 mm 23 W/m2
20:19 18 °C 13 °C 1004.7 hPa NW 2 km/h 10 km/h 76% 0.0 mm 16 W/m2
20:24 18 °C 13 °C 1004.6 hPa NW 3 km/h 8 km/h 76% 0.0 mm 9 W/m2
20:29 17 °C 13 °C 1004.7 hPa NW 4 km/h 11 km/h 77% 0.0 mm 7 W/m2
20:34 17 °C 13 °C 1004.7 hPa NW 1 km/h 5 km/h 77% 0.0 mm 5 W/m2
20:39 17 °C 13 °C 1004.7 hPa North 1 km/h 6 km/h 77% 0.0 mm 0 W/m2
20:44 17 °C 13 °C 1004.7 hPa North 1 km/h 6 km/h 78% 0.0 mm 0 W/m2
20:49 17 °C 13 °C 1004.7 hPa Calm   3 km/h 78% 0.0 mm 0 W/m2
20:54 17 °C 13 °C 1004.8 hPa Calm   3 km/h 78% 0.0 mm 0 W/m2
20:59 17 °C 13 °C 1004.9 hPa Calm   2 km/h 78% 0.0 mm 0 W/m2
21:04 17 °C 13 °C 1005.0 hPa North 1 km/h 5 km/h 78% 0.0 mm 0 W/m2
21:09 17 °C 13 °C 1005.1 hPa NW 4 km/h 11 km/h 77% 0.0 mm 0 W/m2
21:14 17 °C 12 °C 1005.2 hPa NW 4 km/h 11 km/h 77% 0.0 mm 0 W/m2
21:19 17 °C 12 °C 1005.3 hPa NW 1 km/h 10 km/h 77% 0.0 mm 0 W/m2
21:24 16 °C 12 °C 1005.5 hPa NW 4 km/h 10 km/h 77% 0.0 mm 0 W/m2
21:29 16 °C 12 °C 1005.7 hPa WNW 5 km/h 10 km/h 77% 0.0 mm 0 W/m2
21:34 16 °C 12 °C 1005.7 hPa NW 5 km/h 14 km/h 77% 0.0 mm 0 W/m2
21:39 16 °C 12 °C 1005.7 hPa NW 5 km/h 10 km/h 77% 0.0 mm 0 W/m2
21:44 16 °C 12 °C 1005.7 hPa NW 6 km/h 13 km/h 77% 0.0 mm 0 W/m2
21:49 16 °C 12 °C 1005.7 hPa NW 5 km/h 13 km/h 77% 0.0 mm 0 W/m2
21:54 16 °C 12 °C 1005.7 hPa WNW 6 km/h 11 km/h 77% 0.0 mm 0 W/m2
21:59 16 °C 12 °C 1005.8 hPa WNW 6 km/h 11 km/h 77% 0.0 mm 0 W/m2
22:04 16 °C 12 °C 1005.8 hPa WNW 5 km/h 11 km/h 77% 0.0 mm 0 W/m2
22:09 16 °C 12 °C 1005.9 hPa NW 4 km/h 10 km/h 77% 0.0 mm 0 W/m2
22:14 16 °C 12 °C 1005.9 hPa NW 3 km/h 13 km/h 77% 0.0 mm 0 W/m2
22:19 16 °C 12 °C 1005.8 hPa NW 1 km/h 6 km/h 77% 0.0 mm 0 W/m2
22:24 16 °C 12 °C 1005.8 hPa NW 1 km/h 5 km/h 77% 0.0 mm 0 W/m2
22:29 16 °C 12 °C 1005.7 hPa Calm   2 km/h 77% 0.0 mm 0 W/m2
22:34 16 °C 12 °C 1005.7 hPa Calm   3 km/h 77% 0.0 mm 0 W/m2
22:39 16 °C 12 °C 1005.6 hPa NW 1 km/h 6 km/h 77% 0.0 mm 0 W/m2
22:44 16 °C 12 °C 1005.6 hPa NW 2 km/h 6 km/h 77% 0.0 mm 0 W/m2
22:49 16 °C 12 °C 1005.6 hPa NW 2 km/h 5 km/h 77% 0.0 mm 0 W/m2
22:54 16 °C 12 °C 1005.5 hPa NW 4 km/h 8 km/h 77% 0.0 mm 0 W/m2
22:59 16 °C 12 °C 1005.5 hPa NW 3 km/h 10 km/h 77% 0.0 mm 0 W/m2
23:04 16 °C 12 °C 1005.5 hPa NW 2 km/h 10 km/h 77% 0.0 mm 0 W/m2
23:09 16 °C 12 °C 1005.5 hPa NW 1 km/h 6 km/h 77% 0.0 mm 0 W/m2
23:14 16 °C 12 °C 1005.4 hPa NW 4 km/h 8 km/h 76% 0.0 mm 0 W/m2
23:19 16 °C 11 °C 1005.5 hPa NW 5 km/h 11 km/h 76% 0.0 mm 0 W/m2
23:24 16 °C 11 °C 1005.6 hPa NW 4 km/h 10 km/h 76% 0.0 mm 0 W/m2
23:29 16 °C 11 °C 1005.6 hPa NW 5 km/h 10 km/h 75% 0.0 mm 0 W/m2
23:34 16 °C 11 °C 1005.6 hPa WNW 4 km/h 10 km/h 75% 0.0 mm 0 W/m2
23:39 16 °C 11 °C 1005.6 hPa NW 3 km/h 8 km/h 74% 0.0 mm 0 W/m2
23:44 16 °C 11 °C 1005.6 hPa NW 1 km/h 8 km/h 74% 0.0 mm 0 W/m2
23:49 16 °C 11 °C 1005.6 hPa NW 4 km/h 8 km/h 74% 0.0 mm 0 W/m2
23:54 15 °C 11 °C 1005.5 hPa NW 5 km/h 11 km/h 74% 0.0 mm 0 W/m2
23:59 15 °C 11 °C 1005.3 hPa NW 4 km/h 11 km/h 74% 0.0 mm 0 W/m2
Compliments of Weather Underground - 4.25 mb